Retour au catalogue

NOAA 16 DEB

ActifPO
NORAD 41365·DEBRIS·🇺🇸 United States

Lancé Sep 21, 2000 depuis Vandenberg Space Force Base

Loading…

Prochains Passages (prochaines 24 heures)

TLE

FraisSource: Space-Track

Époque: Sep 13, 2026, 18:34 UTC

1 41365U 00055JJ  26256.77387372  .00006188  00000-0  13108-2 0  9992
2 41365  98.9270  92.5534 0023911 198.2087 161.8257 14.59440082552510

Suivez NOAA 16 DEB en temps réel avec AllMySat

Download on the App Store